Погода в Борисоглебске

Погода в Борисоглебске : погода сейчас, прогноз погоды и архив. Всё, что Вы хотите узнать о погоде в Борисоглебске!

Хотите узнать прогноз погоды в Борисоглебске? Тогда Вам сюда: Погода в Борисоглебске

Поиск расширенной информации на нашем сайте:

Другие новости

Новости СМИ2

Главная страница сайта

Новости сайта

03.07.2017

Напоминаем, что на нашем специализированном сайте Метеоцентр.Азия вы можете получить высокодетализированные автоматические прогнозы погоды по пунктам России, СНГ и мира в авиационном формате (включающие направление и скорость ветра, видимость, явления погоды, количество и форму облачности, нижнюю и верхнюю границу облачности).


Погода в Борисоглебске - сегодня

Время (UTC), дата Ветер
(°,м/с) 
Видим.   Явления Облачность Т
(°С)
Тd
(°С)
f(%) Тe
(°С)
Pmin
(гПа)
dP
(гПа)
Po
(мм)
O2
(г/м3)
Тmin Tmax R s Состояние
почвы
12 20.10.17 290 (З) 20000 м    8/0 средняя 
[Ac trans]
+10.8 -0.5 45 +11  1020.4  -0.7  756  293           
15 20.10.17 350 (С) 10 км    9/0 средняя 
[Ac trans]
+7.2 -0 60 +8  1020.9  0.3  756  297    +11.5       
18 20.10.17 тихо ()   4000 м  дымка  ясно 
+2.3 +1.3 93 +2  1021.6  0.5  756  302           
21 20.10.17 тихо ()   4000 м  дымка  ясно 
-1.4 -2.2 94 -1  1021.8  756  307           
00 21.10.17 тихо ()   2000 м  дымка  ясно 
-1.7 -2.2 96 -2  1021.4  -0.4  756  307           
03 21.10.17 200 (Ю) 2000 м  дымка  4/0 верхняя 
[Ci fib]
-0.6 -1.2 96 1020.6  -0.7  755  305  -1.7         
06 21.10.17 тихо ()   4000 м  дымка  ясно 
+1.2 +0.1 92 +1  1020.6  755  303  -1.7         
09 21.10.17 260 (З) 20000 м    8/0 средняя 
[Ac trans]
+9 +1.7 60 +10  1019.9  -0.3  755  294           
12 21.10.17 040 (СВ) 20000 м    9/9 600 м 
[Sc]
+8.2 +0.2 57 +9  1018.5  -1.4  754  295           
15 21.10.17 тихо ()   10 км    4/0 средняя 
[Ac trans]
+4.8 +0.4 73 +5  1017.5  -1.2  753  298    +9.3       
18 21.10.17 тихо ()   4000 м  дымка  4/0 средняя 
[Ac trans]
+2 +0.4 89 +2  1014.5  753  301           
21 21.10.17 тихо ()   4000 м  дымка  4/0 средняя 
[Ac trans]
+2 +0.4 89 +2  1017.5  753  301           
00 22.10.17 тихо ()   4000 м  дымка  9/9 600 м 
[Sc]
+1.6 +0.2 90 +2  1015.6  -1.4  752  301           
03 22.10.17 тихо ()   4000 м  дымка  6/0 средняя 
[Ac trans]
+1.4 +0.3 92 +1  1015.1  -0.5  751  301  +1.4         
06 22.10.17 030 (СВ) 4000 м  дымка  8/0 средняя 
[Ac trans]
+1.5 -0.2 88 +1  1015.4  0.3  752  301  +0.7         
09 22.10.17 020 (С) 10 км    10/6 1000 м средняя 
[Cu med, cong|Ac trans]
+4.9 +0.8 75 +5  1015.2  -0.1  752  297           
12 22.10.17 010 (С) 10 км    6/6 1000 м 
[Cu med, cong]
+4.4 -1 68 +3  1015.4  0.2  752  298           
15 22.10.17 350 (С) 10 км    ясно 
+1.1 -2.4 77 1016.9  1.3  753  302    +5.8       
18 22.10.17 330 (СЗ) 4000 м  дымка  ясно 
-0.8 -3 85 -2  1018.2  1.1  754  305           
21 22.10.17 340 (С) 4000 м  дымка  ясно 
-1.4 -3.1 88 -1  1019.4  1.2  754  306           
00 23.10.17 350 (С) 4000 м  дымка  ясно 
-3.1 -4.5 90 -3  1020.6  1.1  755  308           
03 23.10.17 тихо ()   4000 м  дымка  ясно 
-5 -6 93 -5  1021.8  1.1  756  311  -5         
06 23.10.17 тихо ()   4000 м  дымка  ясно 
-1 -3.2 85 -1  1022.2  0.6  757  306  -5.2         
09 23.10.17 250 (З) 20000 м    3/0 верхняя 
[Ci fib]
+3.3 -3.8 60 +3  1022.3  0.3  757  302           
12 23.10.17 260 (З) 20000 м    8/3 1000 м верхняя 
[Cu hum|Ci fib]
+4.3 -4.3 54 +4  1021.8  -0.4  756  301           
Время (UTC), дата Ветер
(°,м/с) 
Видим.   Явления Облачность Т
(°С)
Тd
(°С)
f(%) Тe
(°С)
Pmin
(гПа)
dP
(гПа)
Po
(мм)
O2
(г/м3)
Тmin Tmax R s Состояние
почвы

Для получения пояснительной информации подведите курсор к названию столбца.

ПОГОДА в Борисоглебске - архив

Всё, что Вы хотите узнать о погоде в Борисоглебске - удобно и подробно!

Выберите нужную дату (начиная с 1 января 2015* года) и нажмите кнопку "Найти".
Будут отображены архивные сводки погоды по пункту Борисоглебск, начиная с указанной даты.


Отображать данные в формате CSV (для использования в таблицах Excel)


Внимание! Наш архив погоды предназначен исключительно для личного некоммерческого использования в познавательных целях. Если Вам необходимы официальные справки о состоянии погоды (для производственных, юридических, коммерческих и т.п. целей), обращайтесь в органы Росгидромета.

*Примечание: данная дата относится к архиву по метеостанциям СССР (Россия, СНГ, Балтия).
Архив по метеостанциям Зарубежной Европы и Азии (кроме Китая) хранится 10 дней, по другим регионам земного шара (Китай, Африка, Америка, Австралия, Океания) - 1 день.

Борисоглебск - район местоположения метеостанции


Название, широта, долгота, высота метеостанции:
Борисоглебск 51.4°ш. 42.1°д. 106 м над ур. моря [Российская Федерация]

Дополнительная информация

В oтличие oт бoльшинства пoгoдных сайтoв мы публикуем пoдрoбную метеoинфoрмацию в детальнoм прoфессиoнальнoм фoрмате.

Характеристики температуры и влажнoсти вoздуха измеряются на высoте 2 м в тени вдали oт зданий и деревьев.
Скoрoсть ветра измеряется на высoте 10 м (на урoвне рoста челoвека скoрoсть ветра ниже в 1.5-2 раза). Если метеoстанция нахoдится в гoрoде или в лесу, тo скoрoсть ветра занижена на 2-4 м/с пo сравнению с oткрытым местoм. Скoрoсть ветра над акватoриями крупных рек и oзёр, а также на вершинах хoлмoв на 2-5 м/с выше, чем в oбычных услoвиях.
Атмoсфернoе давление в разных тoчках местнoсти мoжет значительнo oтличаться oт давления на метеoстанции, в зависимoсти oт услoвий рельефа (при пoдъёме на 10 м давление пoнижается примернo на 1 мм рт.ст.).